This is the latest recevied weather packets stored in our database for station/object WA5TET. If no packets are shown the sender has not sent any weather packets the latest 10 day(s).
| Time | Temp. | Humidity | Pressure | Rain* | Wind** | Luminosity | Snow |
|---|---|---|---|---|---|---|---|
| 1787903265 | 28.33° C | 58% | 1015.2 hPa | 0 mm | - | 0 W/m² | - |
| 1787902961 | 28.33° C | 58% | 1015.3 hPa | 0 mm | - | 0 W/m² | - |
| 1787902658 | 28.33° C | 58% | 1015.2 hPa | 0 mm | - | 0 W/m² | - |
| 1787902352 | 28.33° C | 58% | 1015.2 hPa | 0 mm | - | 0 W/m² | - |
| 1787902048 | 28.33° C | 58% | 1015.3 hPa | 0 mm | - | 0 W/m² | - |
| 1787901743 | 28.33° C | 58% | 1015.2 hPa | 0 mm | - | 0 W/m² | - |
| 1787901445 | 28.33° C | 58% | 1015.5 hPa | 0 mm | - | 0 W/m² | - |
| 1787901135 | 28.89° C | 57% | 1015.4 hPa | 0 mm | - | 0 W/m² | - |
| 1787900834 | 28.89° C | 57% | 1015.3 hPa | 0 mm | - | 0 W/m² | - |
| 1787900530 | 28.89° C | 56% | 1015.4 hPa | 0 mm | - | 0 W/m² | - |
| 1787900229 | 28.89° C | 56% | 1015.4 hPa | 0 mm | - | 0 W/m² | - |
| 1787899924 | 28.89° C | 56% | 1015.3 hPa | 0 mm | - | 0 W/m² | - |
| 1787899620 | 29.44° C | 55% | 1015.2 hPa | 0 mm | - | 0 W/m² | - |
| 1787899315 | 29.44° C | 55% | 1015.5 hPa | 0 mm | - | 0 W/m² | - |
| 1787899010 | 28.89° C | 55% | 1015.5 hPa | 0 mm | - | 0 W/m² | - |
| 1787898706 | 29.44° C | 55% | 1015.4 hPa | 0 mm | - | 0 W/m² | - |
| 1787898404 | 29.44° C | 54% | 1015.3 hPa | 0 mm | - | 0 W/m² | - |
| 1787898104 | 30° C | 53% | 1015.3 hPa | 0 mm | - | 0 W/m² | - |
| 1787897799 | 30° C | 53% | 1015.4 hPa | 0 mm | - | 0 W/m² | - |
| 1787897499 | 30° C | 52% | 1015.3 hPa | 0 mm | - | 0 W/m² | - |
| 1787897198 | 30° C | 52% | 1015.4 hPa | 0 mm | - | 0 W/m² | - |
| 1787896893 | 30° C | 52% | 1015.3 hPa | 0 mm | - | 0 W/m² | - |
| 1787896588 | 29.44° C | 52% | 1015.4 hPa | 0 mm | - | 0 W/m² | - |
| 1787896285 | 29.44° C | 52% | 1015.1 hPa | 0 mm | - | 0 W/m² | - |
| 1787895980 | 30° C | 51% | 1015.1 hPa | 0 mm | - | 0 W/m² | - |
* Rain latest hour (hover to see other rain measurements)
** Current wind speed in m/s (hover to see current wind gust speed)